#timestamp,LO_Frequency,Hit,StdDev 
1691643615.3,286046999.9,N
1691643635.2,286047000.1,N
1691643655.0,286047000.1,N
1691643655.9,286047000.1,N
1691643675.7,286047000.1,N
1691643695.6,286047002.4,N
1691643715.4,286047002.4,N
1691643735.3,286047001.7,N
1691643755.1,286047001.8,N
1691643756.0,286047001.8,N
1691643775.8,286047001.6,N
1691643795.7,286047001.9,N
1691643815.5,286047002.6,N
1691643835.3,286047002.5,N
1691643855.2,286047001.9,N
1691643875.0,286047000.3,N
1691643875.9,286047000.3,N
1691643895.8,286047000.2,N
1691643915.6,286047001.2,N
1691643935.4,286047000.8,N
1691643955.3,286047000.4,N
1691643975.1,286047000.3,N
1691643995.8,286047000.6,N
1691644015.7,286047000.1,N
1691644035.5,286046999.9,N
1691644055.4,286047002.0,N
1691644075.2,286047002.5,N
1691644095.0,286047002.3,N
1691644095.9,286047002.3,N
1691644115.8,286047002.7,N
1691644135.6,286047001.5,N
1691644155.5,286047002.3,N
1691644175.3,286047002.0,N
1691644195.1,286047002.4,N
1691644215.9,286047002.3,N
1691644235.7,286047001.9,N
1691644255.5,286046999.7,N
1691644275.4,286047002.2,N
1691644295.2,286047002.3,N
1691644315.1,286047000.9,N
1691644316.0,286047011.9,Y
1691644335.8,286046998.8,P
1691644355.6,286046999.4,N
1691644375.5,286046998.8,N
1691644395.3,286046997.2,N
1691644415.1,286046997.8,N
1691644435.9,286046997.2,N
1691644455.7,286046996.7,N
1691644475.6,286046999.2,N
1691644495.4,286046998.3,N
1691644515.3,286046998.4,N
1691644535.1,286046999.0,N
1691644536.0,286046999.0,N
1691644555.8,286046998.1,N
1691644575.7,286047000.8,N
1691644595.5,286046999.9,N
1691644615.3,286047002.8,N
1691644635.2,286047000.6,N
1691644655.0,286047000.1,N
1691644655.9,286047000.1,N
1691644675.8,286047001.0,N
1691644695.6,286047000.1,N
1691644715.4,286046999.9,N
1691644735.3,286047002.8,N
1691644755.1,286047000.0,N
1691644775.8,286047002.5,N
1691644795.7,286046999.9,N
1691644815.5,286047000.4,N
1691644835.4,286047000.3,N
1691644855.2,286047000.0,N
1691644875.0,286047000.5,N
1691644875.9,286047000.5,N
1691644895.8,286046998.3,N
1691644915.6,286046998.6,N
1691644935.4,286046998.1,N
1691644955.3,286046998.6,N
1691644975.1,286047001.0,N
1691644995.9,286047000.8,N
1691645015.7,286047000.7,N
1691645035.5,286046998.3,N
1691645055.4,286046999.2,N
1691645075.2,286046999.0,N
1691645095.0,286046999.4,N
1691645095.9,286046999.4,N
1691645115.8,286046998.5,N
1691645135.6,286047000.7,N
1691645155.5,286046998.2,N
1691645175.3,286046998.2,N
1691645195.1,286046998.7,N
1691645215.9,286046999.1,N
1691645235.7,286047001.2,N
1691645255.5,286047000.1,N
1691645275.4,286047000.1,N
1691645295.2,286047002.8,N
1691645315.1,286047001.8,N
1691645316.0,286047001.8,N
1691645335.8,286047001.4,N
1691645355.6,286047003.9,Y
1691645375.5,286047004.4,P
1691645395.3,286047004.0,N
1691645415.1,286047004.2,N
1691645435.9,286047001.8,N
1691645455.7,286047004.3,N
1691645475.6,286047001.4,N
1691645495.4,286047001.4,N
1691645515.2,286047003.6,N
1691645535.1,286047004.2,N
1691645536.0,286047004.2,N
1691645555.8,286047003.1,N
1691645575.6,286047003.2,N
1691645595.5,286047002.9,N
1691645615.3,286047003.5,N
1691645635.2,286047003.0,N
1691645655.9,286047002.9,N
1691645675.7,286047003.4,N
1691645695.6,286047005.9,Y
1691645715.4,286047000.6,P
1691645735.3,286047000.6,N
1691645755.1,286047000.5,N
1691645756.0,286047000.5,N
1691645775.8,286047000.4,N
1691645795.7,286047000.9,N
1691645815.5,286047000.6,N
1691645835.4,286047001.2,N
1691645855.2,286046998.3,N
1691645875.0,286047001.2,N
1691645875.9,286047001.2,N
1691645895.8,286046998.5,N
1691645915.6,286047001.1,N
1691645935.4,286046998.2,N
1691645955.3,286046998.1,N
1691645975.1,286046998.3,N
1691645995.9,286046998.5,N
1691646015.7,286046998.3,N
1691646035.5,286046998.7,N
1691646055.4,286046999.1,N
1691646075.2,286047001.1,N
1691646095.0,286046998.1,N
1691646095.9,286046998.1,N
1691646115.8,286046998.4,N
1691646135.7,286046999.2,N
1691646155.5,286046996.7,N
1691646175.3,286046999.6,N
1691646195.2,286046998.4,N
1691646215.9,286046998.8,N
1691646235.7,286046999.2,N
1691646255.6,286046996.6,N
1691646275.4,286046997.3,N
1691646295.2,286046997.0,N
1691646315.1,286046997.3,N
1691646316.0,286046997.3,N
1691646335.8,286046996.7,N
1691646355.7,286046996.6,N
1691646375.5,286046996.6,N
1691646395.3,286046996.9,N
1691646415.2,286046996.8,N
1691646435.0,286046997.1,N
1691646435.9,286046997.1,N
1691646455.8,286046997.8,N
1691646475.6,286046997.0,N
1691646495.4,286046997.7,N
1691646515.3,286046997.5,N
1691646535.1,286046996.6,Y
1691646555.8,286047000.6,P
1691646575.7,286046998.5,N
1691646595.5,286046999.3,N
1691646615.4,286046998.4,N
1691646635.2,286046998.4,N
1691646655.0,286046998.8,N
1691646655.9,286046998.8,N
1691646675.8,286046998.3,N
1691646695.6,286046998.1,N
1691646715.4,286046999.0,N
1691646735.3,286046999.2,N
1691646755.1,286046999.5,N
1691646775.9,286046998.3,N
1691646795.7,286046998.4,N
1691646815.5,286046998.7,N
1691646835.4,286046999.2,N
1691646855.2,286046999.1,N
1691646875.0,286046999.4,N
1691646876.0,286046999.4,N
1691646895.8,286046998.9,N
1691646915.6,286046999.0,N
1691646935.5,286046999.5,N
1691646955.3,286046998.7,N
1691646975.1,286046998.6,N
1691646995.9,286046998.7,N
1691647015.7,286046999.4,N
1691647035.5,286046999.0,N
1691647055.4,286046996.5,Y
1691647075.2,286046999.3,P
1691647095.1,286046999.6,N
1691647096.0,286046999.6,N
1691647115.8,286046999.4,N
1691647135.6,286046999.1,Y
1691647155.5,286046998.5,P
1691647175.3,286047001.1,N
1691647195.2,286047001.0,N
